239 visiteurs
Prévisions de votre ville :
Vigilance : 7 départements Mise à jour le 15/10/2019 à 16:07 - Voir la carte

Paris Roissy CDG (95380) le 16/10/2019 à 04:00 Choisir station

11°C 94 % S Vit. moyenne 22 kmh/h

Relevés météo quotidiens pour la station de :

UTC
S: Synop
M: Metar
Loc T°C
(°C)
Td
(°C)
HR
(%)
Vis
(km)
Néb
(octa)
Vent
(km/h)
Pression
(mb)
Précipitations
(mm)
Temps
              MOY
10 min
DIR RAF 1h MESURE VAR SUR 3h    
S 00 h 02h 15.9 12.1 78 20 - 6 15 1020.4 -0.1/3h 0.0/6h - 0.0/3h -
S 01 h 03h 14.4 11.5 83 19 - 6 9 1021.2 +0.5/3h 0.0/1h -
S 02 h 04h 14.2 11.4 83 20 - 9 13 1021.4 +1.2/3h 0.0/1h -
S 03 h 05h 13.6 10.8 83 20 - 4 9 1020.7 +0.1/3h 0.0/3h -
S 04 h 06h 13.7 11.0 84 20 - 7 15 1019.9 -1.3/3h 0.0/1h -
S 05 h 07h 14.5 11.5 82 9 7/8 4 15 1021.7 +0.3/3h 0.6/1h
S 06 h 08h 14.6 12.3 86 19 8/8 4 11 1021.2 +0.6/3h 1.0/12h - 1.0/3h - 1.2/24h
S 07 h 09h 15.6 12.9 84 20 - 6 13 1022.3 +2.4/3h 0.0/1h -
S 08 h 10h 16.0 13.1 83 20 7/8 7 13 1022.3 +0.7/3h 0.0/1h
S 09 h 11h 17.6 13.7 78 20 7/8 9 15 1021.8 +0.8/3h 0.0/3h
S 10 h 12h 18.0 12.4 70 20 8/8 13 31 1022.6 +0.5/3h 0.0/1h
S 11 h 13h 19.4 11.9 62 20 8/8 7 20 1022.6 +0.5/3h 0.0/1h
S 12 h 14h 21.0 12.2 57 20 7/8 11 20 1022.4 +0.8/3h 0.0/6h - 0.0/3h
S 13 h 15h 21.6 12.4 56 20 6/8 13 24 1021.9 -0.5/3h 0.0/1h
S 14 h 16h 21.2 12.1 56 20 - 9 13 1022.0 -0.5/3h 0.0/1h -
S 15 h 17h 21.3 12.2 56 19 6/8 9 15 1022.0 -0.4/3h 0.0/3h
S 16 h 18h 22.0 12.5 55 20 - 15 22 1021.5 -0.4/3h 0.0/1h -
S 17 h 19h 22.3 12.0 52 20 - 11 22 1021.2 -0.8/3h 0.0/1h -
S 18 h 20h 21.8 12.6 56 20 - 13 22 1021.1 -0.9/3h 0.0/12h - 0.0/3h -
S 19 h 21h 19.4 12.6 65 20 - 9 17 1021.7 +0.1/3h 0.0/1h -
S 20 h 22h 16.2 10.7 70 20 - 17 31 1022.3 +0.8/3h 0.0/1h -
S 21 h 23h 14.6 9.6 72 20 - 17 30 1023.7 +2.1/3h 0.0/3h -
S 22 h 00h 13.1 9.2 77 20 - 6 17 1024.3 +2.1/3h 0.0/1h -
S 23 h 01h 11.7 8.9 83 20 - 6 9 1024.3 +1.7/3h 0.0/1h -
evolution des temperatures
cumul des precipitations
vent moyen et rafales
pression atmospherique

Un tiret (-) signifie que les données ne sont pas disponibles.

Passez la souris sur les pictos temps pour avoir plus de précisions. Passez les flèches sur l'icône de la direction du vent pour voir la direction précise en degrés.

Les données de l'heure en cours sont disponibles à partir de H+15 minutes.


S signifie station Synop, plus complète qu'une station Metar (M). Il y a +1h de différence entre l'heure UTC et l'heure légale en hiver et +2h en été.

Td est la mesure du point de rosée.

HR est l'humidité relative/p>

Vis est la visibilité

Néb est la nébulosité du ciel (couverture nuageuse) exprimée en octas (de 0/8 à 8/8).

Vent moy 10 min donne le vent moyen sur les 10 minutes qui précèdent le relevé.

Vent raf 1h donne la rafale maximale mesurée dans l'heure qui précède le relevé.


Les données les plus anciennes remontent à avril 2014.

Les données présentées sur cette page proviennent des stations météo officielles. Les relevés sont effectués aux normes en vigueur (anémomètre à 10m de haut, thermomètre sous abri normalisé à 2m du sol...)

Météo 60 décline toute responsabilité en cas d'absence de données, d'erreurs, de mauvaise utilisation ou interprétation et n'est pas habilité à fournir des certificats intempéries.